MISRSAT-2

Satellite information

Favourite Embed

Satellite Type and Status

PAYLOADIN ORBIT

Key statistics

Satellite MISRSAT-2 at a glance.

Uptime

687

Days in orbit

Revolutions

≈ 14.8

Per day

Orbit

SSO

Sun Synchronous Orbit

Inclination

97.9

Latest

Satellite identification and parameters

Extended collection of information and parameters for MISRSAT-2.

Object identification

Identified? True

Debris? False

Object name: MISRSAT-2

International designator: 2023-187B

Object number (NORAD): 58497

Object ID (CCSDS): 58497

Country: EGYPT (EGYP)

Current information (Y/N): Y

RCS size: LARGE

Orbital parameters

Period: 97.144 minutes

Inclination: 97.9477 deg

SMA: 7000.113 km

Apoapsis: 629.551 km

Periapsis: 614.406 km

RAAN: 12.6848 deg

Eccentricy: 0.0010818

Argument of periapsis: 199.1206 deg

Mean anomaly: 160.9603 deg

Mean motion: 14.82330855 rev/day

Mean motion (dot): 0.0000333 rev/day2

B* drag term: 0.00042258988 1/REarth

Two-line elements (TLE)

Creation date: Oct. 21, 2025, 3:26 a.m.

Reference frame: TEME

Reference center: EARTH

Epoch: Oct. 20, 2025, 11:33 p.m. UTC

TLE line 0: 0 MISRSAT-2

TLE line 1: 1 58497U 23187B 25293.98176422 .00003330 00000-0 42259-3 0 9998

TLE line 2: 2 58497 97.9477 12.6848 0010818 199.1206 160.9603 14.82330855101593

Live tracking on map

Real-time ground track for satellite MISRSAT-2.

In-orbit conjunctions

There are no conjunctions computed for MISRSAT-2, at the moment. Check back to stay up to date, as we update our databases every day.

Go to all conjunctions

Associated space launch

MisrSat-2 is an Earth observation satellite for the Egyptian Space Agency built by China, with participation from Egyptian engineers and scientists offering opportunity to acquire on-the-project experience in satellite design and integration from China, using facilities available in Egypt. Also riding on this launch is Starpool-02A/B, multi-purpose communication, remote sensing and navigation enhancement satellites from Beijing based ELLIPSPACE.

MISRSAT-2 was lifted into orbit during the mission ‘Long March 2C | MisrSat-2’, on board a Long March 2 space rocket.

The launch took place on Dec. 4, 2023, 4:10 a.m. from Launch Area 4 (SLS-2 / 603).

For more information about the launch, click the button.

Launch to space Long March 2C | MisrSat-2
Long March 2C | MisrSat-2

Agency: N/A

Status: Launch Successful

Launch date: Dec. 4, 2023, 4:10 a.m. UTC

Rocket: Long March 2

Launch pad: Launch Area 4 (SLS-2 / 603)

Location: Jiuquan Satellite Launch Center, People's Republic of China

...

Latest news about this satellite

There are no fresh news available about this satellite. Check back as we update our databases every day.


Newsletter sign-up

Weekly statistics, charts and insights to help you stay on top of the space industry.